Location: Unspecified
(52.4292°N, 19.3359°E)
Time: 15:03:07
(UTC+02:00)

Transit 2A Rocket - Pass Details

Date: 29 May 2024
Orbit: 583 x 910 km, 66.7° (Epoch: 14 June)

Event Time Altitude Azimuth Distance (km) Brightness Sun altitude
Rises 05:30:59 0° 266° (W) 3,133 7.6 7.2°
Reaches altitude 10° 05:33:37 10° 279° (W) 2,272 7.0 7.5°
Maximum altitude 05:38:00 26° 336° (NNW) 1,516 6.7 8.1°
Drops below altitude 10° 05:42:43 10° 33° (NNE) 2,459 8.8 8.8°
Sets 05:45:42 0° 45° (NE) 3,446 9.9 9.2°
